Powrót do katalogu

CSTP-4.4

AktywnyNaukaSSO
NORAD 64895·PAYLOAD·🇷🇺 Russia
Ta nazwa satelity nie została jeszcze potwierdzona przez oficjalne źródła.

Wystrzelony Jul 25, 2025 z Vostochny Cosmodrome

Loading…

Następne Przeloty (najbliższe 24 godziny)

TLE

ŚwieżeSource: Space-Track

Epoka: Sep 14, 2026, 13:16 UTC

1 64895U 25155V   26257.55288680  .00007528  00000-0  25491-3 0  9990
2 64895  97.4688 226.4854 0005942 203.9722 156.1243 15.30862247 94410

Śledź CSTP-4.4 w czasie rzeczywistym z AllMySat

Download on the App Store